Location: Vale
(35.4830°N, 81.3830°W)
Time: 02:15:37
(UTC-04:00)

SR - All Passes

Search period start: 21 August 2014 00:00
Search period end: 31 August 2014 00:00
Orbit: 575 x 891 km, 66.7° (Epoch: 19 August)

Date Brightness Start Highest point End Pass type
(mag) Time Alt. Az. Time Alt. Az. Time Alt. Az.
21 Aug - 05:59:57 10° S 06:04:56 44° ESE 06:10:21 10° NE visible
21 Aug - 07:42:51 10° WSW 07:47:22 26° NW 07:52:08 10° N daylight
21 Aug - 14:45:14 10° N 14:49:36 21° NE 14:53:49 10° E daylight
21 Aug - 16:26:32 10° NW 16:32:18 60° WSW 16:37:39 10° S daylight
22 Aug - 05:13:05 10° SSE 05:17:04 22° ESE 05:21:17 10° ENE visible
22 Aug - 06:53:40 10° SW 06:58:50 47° WNW 07:04:26 10° NNE daylight
22 Aug - 13:58:37 10° NNE 14:00:47 12° NE 14:02:56 10° ENE daylight
22 Aug - 15:38:15 10° NNW 15:44:08 71° ENE 15:49:36 10° SE daylight
22 Aug - 17:22:45 10° WNW 17:25:33 14° WSW 17:28:16 10° SW daylight
23 Aug - 06:05:11 10° SSW 06:10:33 90° WNW 06:16:22 10° NNE visible
23 Aug - 07:50:39 10° WNW 07:53:39 15° NW 07:56:45 10° NNW daylight
23 Aug - 14:50:18 10° NNW 14:55:45 38° NE 15:00:53 10° ESE daylight
23 Aug - 16:32:53 10° NW 16:37:46 29° WSW 16:42:23 10° SSW daylight
24 Aug - 05:17:25 10° S 05:22:28 45° ESE 05:27:55 10° NE visible
24 Aug - 07:00:24 10° WSW 07:04:55 25° NW 07:09:40 10° N daylight
24 Aug - 14:02:45 10° N 14:07:10 21° NE 14:11:23 10° E daylight
24 Aug - 15:44:06 10° NW 15:49:50 58° WSW 15:55:08 10° S daylight
25 Aug - 04:30:31 10° SSE 04:34:35 22° ESE 04:38:53 10° NE visible
25 Aug - 06:11:11 10° SW 06:16:23 46° WNW 06:21:59 10° NNE visible
25 Aug - 13:16:05 10° NNE 13:18:21 12° NE 13:20:35 10° ENE daylight
25 Aug - 14:55:48 10° NNW 15:01:40 73° ENE 15:07:07 10° SSE daylight
25 Aug - 16:40:26 10° WNW 16:43:03 13° WSW 16:45:37 10° SW daylight
26 Aug - 03:46:26 10° ESE 03:46:52 10° E 03:47:19 10° E visible
26 Aug - 05:22:41 10° SSW 05:28:04 88° WNW 05:33:55 10° NNE visible
26 Aug - 07:08:15 10° WNW 07:11:12 14° NW 07:14:15 10° NNW daylight
26 Aug - 14:07:50 10° NNW 14:13:18 38° NE 14:18:25 10° SE daylight
26 Aug - 15:50:28 10° NW 15:55:17 28° WSW 15:59:50 10° SSW daylight
27 Aug - 04:34:53 10° S 04:39:59 47° ESE 04:45:30 10° NE visible
27 Aug - 06:17:57 10° WSW 06:22:27 25° NW 06:27:12 10° N visible
27 Aug - 13:20:16 10° N 13:24:42 22° NE 13:28:57 10° E daylight
27 Aug - 15:01:40 10° NW 15:07:21 56° WSW 15:12:37 10° S daylight
28 Aug - 03:47:56 10° SSE 03:52:05 23° ESE 03:56:30 10° NE visible
28 Aug - 05:28:42 10° SW 05:33:55 45° WNW 05:39:31 10° NNE visible
28 Aug - 12:33:33 10° NNE 12:35:54 12° NE 12:38:13 10° ENE daylight
28 Aug - 14:13:20 10° NNW 14:19:12 75° ENE 14:24:37 10° SSE daylight
28 Aug - 15:58:08 10° WNW 16:00:34 13° W 16:02:55 10° SW daylight
29 Aug - 03:03:16 10° ESE 03:04:22 11° E 03:05:29 10° E visible
29 Aug - 04:40:11 10° SSW 04:45:36 86° WNW 04:51:28 10° NNE visible
29 Aug - 06:25:50 10° WNW 06:28:45 14° NW 06:31:44 10° NNW visible
29 Aug - 13:25:22 10° NNW 13:30:50 39° NE 13:35:56 10° SE daylight
29 Aug - 15:08:03 10° NW 15:12:48 27° WSW 15:17:16 10° SSW daylight
30 Aug - 03:52:20 10° S 03:57:30 48° ESE 04:03:03 10° NE visible
30 Aug - 05:35:30 10° WSW 05:39:59 25° NW 05:44:43 10° N visible
30 Aug - 12:37:47 10° N 12:42:15 22° NE 12:46:30 10° E daylight
30 Aug - 14:19:13 10° NW 14:24:52 55° WSW 14:30:05 10° S daylight
